Year,Month,Day,Hour,Minute,Value (Times are PST for temperature in C)
2011,03,17,08,59,5.10
2011,03,17,09,00,5.10
2011,03,17,09,01,5.10
2011,03,17,09,02,5.20
2011,03,17,09,03,5.20
2011,03,17,09,04,5.30
2011,03,17,09,05,5.30
2011,03,17,09,06,5.40
2011,03,17,09,07,5.50
2011,03,17,09,08,5.60
2011,03,17,09,09,5.70
2011,03,17,09,10,5.70
2011,03,17,09,11,5.80
2011,03,17,09,12,5.90
2011,03,17,09,13,5.90
2011,03,17,09,14,5.90
2011,03,17,09,15,6.00
2011,03,17,09,16,6.00
2011,03,17,09,17,6.00
2011,03,17,09,18,6.00
2011,03,17,09,19,6.00
2011,03,17,09,20,6.10
2011,03,17,09,21,6.10
2011,03,17,09,22,6.10
2011,03,17,09,23,6.10
2011,03,17,09,24,6.20
2011,03,17,09,25,6.20
2011,03,17,09,26,6.20
2011,03,17,09,27,6.20
2011,03,17,09,28,6.20
2011,03,17,09,29,6.30
2011,03,17,09,30,6.30
2011,03,17,09,31,6.30
2011,03,17,09,32,6.30
2011,03,17,09,33,6.40
2011,03,17,09,34,6.40
2011,03,17,09,35,6.40
2011,03,17,09,36,6.40
2011,03,17,09,37,6.40
2011,03,17,09,38,6.40
2011,03,17,09,39,6.50
2011,03,17,09,40,6.60
2011,03,17,09,41,6.60
2011,03,17,09,42,6.60
2011,03,17,09,43,6.60
2011,03,17,09,44,6.60
2011,03,17,09,45,6.60
2011,03,17,09,46,6.60
2011,03,17,09,47,6.60
2011,03,17,09,48,6.60
2011,03,17,09,49,6.60
2011,03,17,09,50,6.60
2011,03,17,09,51,6.60
2011,03,17,09,52,6.50
2011,03,17,09,53,6.40
2011,03,17,09,54,6.40
2011,03,17,09,55,6.40
2011,03,17,09,56,6.40
2011,03,17,09,57,6.40
2011,03,17,09,58,6.50
2011,03,17,09,59,6.60
2011,03,17,10,00,6.60
2011,03,17,10,01,6.60
2011,03,17,10,02,6.50
2011,03,17,10,03,6.40
2011,03,17,10,04,6.40
2011,03,17,10,05,6.40
2011,03,17,10,06,6.40
2011,03,17,10,07,6.30
2011,03,17,10,08,6.30
2011,03,17,10,09,6.20
2011,03,17,10,10,6.20
2011,03,17,10,11,6.20
2011,03,17,10,12,6.20
2011,03,17,10,13,6.20
2011,03,17,10,14,6.20
2011,03,17,10,15,6.20
2011,03,17,10,16,6.10
2011,03,17,10,17,6.20
2011,03,17,10,18,6.20
2011,03,17,10,19,6.20
2011,03,17,10,20,6.20
2011,03,17,10,21,6.20
2011,03,17,10,22,6.20
2011,03,17,10,23,6.20
2011,03,17,10,24,6.20
2011,03,17,10,25,6.20
2011,03,17,10,26,6.20
2011,03,17,10,27,6.20
2011,03,17,10,28,6.20
2011,03,17,10,29,6.20
2011,03,17,10,30,6.20
2011,03,17,10,31,6.20
2011,03,17,10,32,6.20
2011,03,17,10,33,6.20
2011,03,17,10,34,6.20
2011,03,17,10,35,6.20
2011,03,17,10,36,6.20
2011,03,17,10,37,6.20
2011,03,17,10,38,6.20
2011,03,17,10,39,6.20
2011,03,17,10,40,6.30
2011,03,17,10,41,6.30
2011,03,17,10,42,6.30
2011,03,17,10,43,6.30
2011,03,17,10,44,6.30
2011,03,17,10,45,6.30
2011,03,17,10,46,6.30
2011,03,17,10,47,6.30
2011,03,17,10,48,6.30
2011,03,17,10,49,6.30
2011,03,17,10,50,6.30
2011,03,17,10,51,6.30
2011,03,17,10,52,6.30
2011,03,17,10,53,6.30
2011,03,17,10,54,6.30
2011,03,17,10,55,6.20
2011,03,17,10,56,6.20
2011,03,17,10,57,6.20
2011,03,17,10,58,6.20
2011,03,17,10,59,6.20
2011,03,17,11,00,6.30
2011,03,17,11,01,6.30
2011,03,17,11,02,6.30
2011,03,17,11,03,6.40
2011,03,17,11,04,6.40
2011,03,17,11,05,6.40
2011,03,17,11,06,6.40
2011,03,17,11,07,6.40
2011,03,17,11,08,6.40
2011,03,17,11,09,6.40
2011,03,17,11,10,6.40
2011,03,17,11,11,6.40
2011,03,17,11,12,6.40
2011,03,17,11,13,6.40
2011,03,17,11,14,6.40
2011,03,17,11,15,6.40
2011,03,17,11,16,6.40
2011,03,17,11,17,6.40
2011,03,17,11,18,6.40
2011,03,17,11,19,6.50
2011,03,17,11,20,6.60
2011,03,17,11,21,6.60
2011,03,17,11,22,6.70
2011,03,17,11,23,6.80
2011,03,17,11,24,6.80
2011,03,17,11,25,6.90
2011,03,17,11,26,7.00
2011,03,17,11,27,7.00
2011,03,17,11,28,7.00
2011,03,17,11,29,7.00
2011,03,17,11,30,7.00
2011,03,17,11,31,7.10
2011,03,17,11,32,7.10
2011,03,17,11,33,7.20
2011,03,17,11,34,7.30
2011,03,17,11,35,7.50
2011,03,17,11,36,7.50
2011,03,17,11,37,7.60
2011,03,17,11,38,7.60
2011,03,17,11,39,7.70
2011,03,17,11,40,7.70
2011,03,17,11,41,7.60
2011,03,17,11,42,7.60
2011,03,17,11,43,7.70
2011,03,17,11,44,7.70
2011,03,17,11,45,7.80
2011,03,17,11,46,7.80
2011,03,17,11,47,7.80
2011,03,17,11,48,7.80
2011,03,17,11,49,7.80
2011,03,17,11,50,7.80
2011,03,17,11,51,7.80
2011,03,17,11,52,7.90
2011,03,17,11,53,7.90
2011,03,17,11,54,7.90
2011,03,17,11,55,7.90
2011,03,17,11,56,7.90
2011,03,17,11,57,7.90
2011,03,17,11,58,7.80
2011,03,17,11,59,7.80
2011,03,17,12,00,7.80
2011,03,17,12,01,7.80
2011,03,17,12,02,7.80
2011,03,17,12,03,7.90
2011,03,17,12,04,7.90
2011,03,17,12,05,7.90
2011,03,17,12,06,7.90
2011,03,17,12,07,7.90
2011,03,17,12,08,7.90
2011,03,17,12,09,7.90
2011,03,17,12,10,7.90
2011,03,17,12,11,7.80
2011,03,17,12,12,7.80
2011,03,17,12,13,7.80
2011,03,17,12,14,7.80
2011,03,17,12,15,7.80
2011,03,17,12,16,7.80
2011,03,17,12,17,7.80
2011,03,17,12,18,7.80
2011,03,17,12,19,7.80
2011,03,17,12,20,7.90
2011,03,17,12,21,7.90
2011,03,17,12,22,8.00
2011,03,17,12,23,8.10
2011,03,17,12,24,8.10
2011,03,17,12,25,8.10
2011,03,17,12,26,8.00
2011,03,17,12,27,7.90
2011,03,17,12,28,7.90
2011,03,17,12,29,7.90
2011,03,17,12,30,7.90
2011,03,17,12,31,7.90
2011,03,17,12,32,7.90
2011,03,17,12,33,7.90
2011,03,17,12,34,7.90
2011,03,17,12,35,7.90
2011,03,17,12,36,7.90
2011,03,17,12,37,8.00
2011,03,17,12,38,8.10
2011,03,17,12,39,8.10
2011,03,17,12,40,8.20
2011,03,17,12,41,8.20
2011,03,17,12,42,8.20
2011,03,17,12,43,8.20
2011,03,17,12,44,8.30
2011,03,17,12,45,8.40
2011,03,17,12,46,8.30
2011,03,17,12,47,8.30
2011,03,17,12,48,8.30
2011,03,17,12,49,8.30
2011,03,17,12,50,8.30
2011,03,17,12,51,8.30
2011,03,17,12,52,8.30
2011,03,17,12,53,8.30
2011,03,17,12,54,8.30
2011,03,17,12,55,8.30
2011,03,17,12,56,8.30
2011,03,17,12,57,8.30
2011,03,17,12,58,8.20
2011,03,17,12,59,8.30
2011,03,17,13,00,8.30
2011,03,17,13,01,8.30
2011,03,17,13,02,8.40
2011,03,17,13,03,8.50
2011,03,17,13,04,8.50
2011,03,17,13,05,8.50
2011,03,17,13,06,8.60
2011,03,17,13,07,8.60
2011,03,17,13,08,8.60
2011,03,17,13,09,8.50
2011,03,17,13,10,8.50
2011,03,17,13,11,8.50
2011,03,17,13,12,8.50
2011,03,17,13,13,8.50
2011,03,17,13,14,8.50
2011,03,17,13,15,8.50
2011,03,17,13,16,8.50
2011,03,17,13,17,8.50
2011,03,17,13,18,8.50
2011,03,17,13,19,8.40
2011,03,17,13,20,8.40
2011,03,17,13,21,8.40
2011,03,17,13,22,8.40
2011,03,17,13,23,8.30
2011,03,17,13,24,8.30
2011,03,17,13,25,8.30
2011,03,17,13,26,8.30
2011,03,17,13,27,8.30
2011,03,17,13,28,8.20
2011,03,17,13,29,8.20
2011,03,17,13,30,8.30
2011,03,17,13,31,8.20
2011,03,17,13,32,8.20
2011,03,17,13,33,8.20
2011,03,17,13,34,8.20
2011,03,17,13,35,8.20
2011,03,17,13,36,8.20
2011,03,17,13,37,8.20
2011,03,17,13,38,8.30
2011,03,17,13,39,8.30
2011,03,17,13,40,8.30
2011,03,17,13,41,8.30
2011,03,17,13,42,8.40
2011,03,17,13,43,8.40
2011,03,17,13,44,8.30
2011,03,17,13,45,8.30
2011,03,17,13,46,8.30
2011,03,17,13,47,8.30
2011,03,17,13,48,8.30
2011,03,17,13,49,8.40
2011,03,17,13,50,8.40
2011,03,17,13,51,8.40
2011,03,17,13,52,8.40
2011,03,17,13,53,8.50
2011,03,17,13,54,8.50
2011,03,17,13,55,8.50
2011,03,17,13,56,8.60
2011,03,17,13,57,8.60
2011,03,17,13,58,8.60
2011,03,17,13,59,8.70
2011,03,17,14,00,8.70
2011,03,17,14,01,8.70
2011,03,17,14,02,8.60
2011,03,17,14,03,8.60
2011,03,17,14,04,8.60
2011,03,17,14,05,8.60
2011,03,17,14,06,8.70
2011,03,17,14,07,8.70
2011,03,17,14,08,8.70
2011,03,17,14,09,8.70
2011,03,17,14,10,8.70
2011,03,17,14,11,8.70
2011,03,17,14,12,8.70
2011,03,17,14,13,8.70
2011,03,17,14,14,8.80
2011,03,17,14,15,8.90
2011,03,17,14,16,8.80
2011,03,17,14,17,8.80
2011,03,17,14,18,8.90
2011,03,17,14,19,8.90
2011,03,17,14,20,8.90
2011,03,17,14,21,8.90
2011,03,17,14,22,8.90
2011,03,17,14,23,8.90
2011,03,17,14,24,8.90
2011,03,17,14,25,8.90
2011,03,17,14,26,8.90
2011,03,17,14,27,8.90
2011,03,17,14,28,8.90
2011,03,17,14,29,8.90
2011,03,17,14,30,8.90
2011,03,17,14,31,8.80
2011,03,17,14,32,8.80
2011,03,17,14,33,8.80
2011,03,17,14,34,8.90
2011,03,17,14,35,9.00
2011,03,17,14,36,9.00
2011,03,17,14,37,9.00
2011,03,17,14,38,9.10
2011,03,17,14,39,9.10
2011,03,17,14,40,9.10
2011,03,17,14,41,9.20
2011,03,17,14,42,9.20
2011,03,17,14,43,9.20
2011,03,17,14,44,9.20
2011,03,17,14,45,9.20
2011,03,17,14,46,9.20
2011,03,17,14,47,9.20
2011,03,17,14,48,9.30
2011,03,17,14,49,9.40
2011,03,17,14,50,9.40
2011,03,17,14,51,9.40
2011,03,17,14,52,9.50
2011,03,17,14,53,9.50
2011,03,17,14,54,9.60
2011,03,17,14,55,9.60
2011,03,17,14,56,9.70
2011,03,17,14,57,9.70
2011,03,17,14,58,9.70
2011,03,17,14,59,9.70
2011,03,17,15,00,9.70
2011,03,17,15,01,9.80
2011,03,17,15,02,9.80
2011,03,17,15,03,9.90
2011,03,17,15,04,9.90
2011,03,17,15,05,9.80
2011,03,17,15,06,9.80
2011,03,17,15,07,9.80
2011,03,17,15,08,9.80
2011,03,17,15,09,9.80
2011,03,17,15,10,9.70
2011,03,17,15,11,9.70
2011,03,17,15,12,9.60
2011,03,17,15,13,9.60
2011,03,17,15,14,9.50
2011,03,17,15,15,9.50
2011,03,17,15,16,9.50
2011,03,17,15,17,9.50
2011,03,17,15,18,9.50
2011,03,17,15,19,9.50
2011,03,17,15,20,9.50
2011,03,17,15,21,9.40
2011,03,17,15,22,9.40
2011,03,17,15,23,9.40
2011,03,17,15,24,9.40
2011,03,17,15,25,9.40
2011,03,17,15,26,9.40
2011,03,17,15,27,9.40
2011,03,17,15,28,9.50
2011,03,17,15,29,9.50
2011,03,17,15,30,9.50
2011,03,17,15,31,9.50
2011,03,17,15,32,9.50
2011,03,17,15,33,9.50
2011,03,17,15,34,9.50
2011,03,17,15,35,9.50
2011,03,17,15,36,9.60
2011,03,17,15,37,9.60
2011,03,17,15,38,9.60
2011,03,17,15,39,9.60
2011,03,17,15,40,9.60
2011,03,17,15,41,9.60
2011,03,17,15,42,9.60
2011,03,17,15,43,9.60
2011,03,17,15,44,9.70
2011,03,17,15,45,9.70
2011,03,17,15,46,9.70
2011,03,17,15,47,9.70
2011,03,17,15,48,9.80
2011,03,17,15,49,9.80
2011,03,17,15,50,9.80
2011,03,17,15,51,9.80
2011,03,17,15,52,9.90
2011,03,17,15,53,9.90
2011,03,17,15,54,9.90
2011,03,17,15,55,9.90
2011,03,17,15,56,9.90
2011,03,17,15,57,9.90
2011,03,17,15,58,10.00
2011,03,17,15,59,10.10
2011,03,17,16,00,10.10
2011,03,17,16,01,10.10
2011,03,17,16,02,10.10
2011,03,17,16,03,10.10
2011,03,17,16,04,10.10
2011,03,17,16,05,10.10
2011,03,17,16,06,10.10
2011,03,17,16,07,10.10
2011,03,17,16,08,10.10
2011,03,17,16,09,10.10
2011,03,17,16,10,10.10
2011,03,17,16,11,10.10
2011,03,17,16,12,10.10
2011,03,17,16,13,10.00
2011,03,17,16,14,9.90
2011,03,17,16,15,9.80
2011,03,17,16,16,9.80
2011,03,17,16,17,9.70
2011,03,17,16,18,9.70
2011,03,17,16,19,9.70
2011,03,17,16,20,9.60
2011,03,17,16,21,9.60
2011,03,17,16,22,9.50
2011,03,17,16,23,9.50
2011,03,17,16,24,9.40
2011,03,17,16,25,9.40
2011,03,17,16,26,9.30
2011,03,17,16,27,9.30
2011,03,17,16,28,9.20
2011,03,17,16,29,9.20
2011,03,17,16,30,9.20
2011,03,17,16,31,9.10
2011,03,17,16,32,9.10
2011,03,17,16,33,9.10
2011,03,17,16,34,9.10
2011,03,17,16,35,9.20
2011,03,17,16,36,9.20
2011,03,17,16,37,9.20
2011,03,17,16,38,9.20
2011,03,17,16,39,9.10
2011,03,17,16,40,9.10
2011,03,17,16,41,9.10
2011,03,17,16,42,9.10
2011,03,17,16,43,9.00
2011,03,17,16,44,9.00
2011,03,17,16,45,8.90
2011,03,17,16,46,8.90
2011,03,17,16,47,8.90
2011,03,17,16,48,8.90
2011,03,17,16,49,8.90
2011,03,17,16,50,8.80
2011,03,17,16,51,8.80
2011,03,17,16,52,8.80
2011,03,17,16,53,8.70
2011,03,17,16,54,8.70
2011,03,17,16,55,8.70
2011,03,17,16,56,8.70
2011,03,17,16,57,8.70
2011,03,17,16,58,8.70
2011,03,17,16,59,8.60
2011,03,17,17,00,8.60
2011,03,17,17,01,8.60
2011,03,17,17,02,8.60
2011,03,17,17,03,8.50
2011,03,17,17,04,8.50
2011,03,17,17,05,8.40
2011,03,17,17,06,8.40
2011,03,17,17,07,8.40
2011,03,17,17,08,8.40
2011,03,17,17,09,8.40
2011,03,17,17,10,8.30
2011,03,17,17,11,8.30
2011,03,17,17,12,8.30
2011,03,17,17,13,8.30
2011,03,17,17,14,8.30
2011,03,17,17,15,8.30
2011,03,17,17,16,8.30
2011,03,17,17,17,8.30
2011,03,17,17,18,8.30
2011,03,17,17,19,8.30
2011,03,17,17,20,8.30
2011,03,17,17,21,8.30
2011,03,17,17,22,8.40
2011,03,17,17,23,8.40
2011,03,17,17,24,8.40
2011,03,17,17,25,8.40
2011,03,17,17,26,8.40
2011,03,17,17,27,8.40
2011,03,17,17,28,8.40
2011,03,17,17,29,8.40
2011,03,17,17,30,8.40
2011,03,17,17,31,8.40
2011,03,17,17,32,8.40
2011,03,17,17,33,8.40
2011,03,17,17,34,8.50
2011,03,17,17,35,8.50
2011,03,17,17,36,8.50
2011,03,17,17,37,8.50
2011,03,17,17,38,8.50
2011,03,17,17,39,8.40
2011,03,17,17,40,8.40
2011,03,17,17,41,8.40
2011,03,17,17,42,8.40
2011,03,17,17,43,8.40
2011,03,17,17,44,8.30
2011,03,17,17,45,8.30
2011,03,17,17,46,8.30
2011,03,17,17,47,8.30
2011,03,17,17,48,8.30
2011,03,17,17,49,8.20
2011,03,17,17,50,8.20
2011,03,17,17,51,8.20
2011,03,17,17,52,8.20
2011,03,17,17,53,8.20
2011,03,17,17,54,8.20
2011,03,17,17,55,8.20
2011,03,17,17,56,8.10
2011,03,17,17,57,8.10
2011,03,17,17,58,8.10
2011,03,17,17,59,8.10
2011,03,17,18,00,8.10
2011,03,17,18,01,8.10
2011,03,17,18,02,8.10
2011,03,17,18,03,8.10
2011,03,17,18,04,8.10
2011,03,17,18,05,8.10
2011,03,17,18,06,8.10
2011,03,17,18,07,8.10
2011,03,17,18,08,8.10
2011,03,17,18,09,8.10
2011,03,17,18,10,8.10
2011,03,17,18,11,8.10
2011,03,17,18,12,8.10
2011,03,17,18,13,8.10
2011,03,17,18,14,8.10
2011,03,17,18,15,8.10
2011,03,17,18,16,8.10
2011,03,17,18,17,8.10
2011,03,17,18,33,8.00
2011,03,17,18,34,8.00
2011,03,17,18,35,8.00
2011,03,17,18,36,8.00
2011,03,17,18,37,8.00
2011,03,17,18,38,8.00
2011,03,17,18,39,7.90
2011,03,17,18,40,7.90
2011,03,17,18,41,7.90
2011,03,17,18,42,7.90
2011,03,17,18,43,7.90
2011,03,17,18,44,7.90
2011,03,17,18,45,7.80
2011,03,17,18,46,7.80
2011,03,17,18,47,7.80
2011,03,17,18,48,7.80
2011,03,17,18,49,7.80
2011,03,17,18,50,7.80
2011,03,17,18,51,7.80
2011,03,17,18,52,7.80
2011,03,17,18,53,7.80
2011,03,17,18,54,7.80
2011,03,17,18,55,7.80
2011,03,17,18,56,7.80
2011,03,17,18,57,7.80
2011,03,17,18,58,7.80
2011,03,17,18,59,7.80
2011,03,17,19,00,7.80
2011,03,17,19,01,7.80
2011,03,17,19,02,7.80
